N974CH KINF-KLAL

Flight info

Callsign N974CH
Flight time 0h 43m
Altitude 4500
Route VFR
Aircraft SR22/L-VGD/C

Departure

Time 2026-04-21 22:47
Airport Inverness Airport (KINF)

Arrival

Time 2026-04-21 23:30
Airport Lakeland Linder International Airport (KLAL)
Time Latitude Longitude Altitude Speed Heading
2026-04-21 22:44 28.80348 -82.31755 56 ft 22 kts
2026-04-21 22:45 28.80503 -82.31735 54 ft 23 kts
2026-04-21 22:45 28.80651 -82.31722 51 ft 18 kts
2026-04-21 22:45 28.80685 -82.31761 52 ft 11 kts 269°
2026-04-21 22:45 28.80681 -82.31796 52 ft 2 kts 218°
2026-04-21 22:46 28.80509 -82.31811 54 ft 61 kts 186°
2026-04-21 22:46 28.79950 -82.31852 170 ft 90 kts 174°
2026-04-21 22:46 28.79281 -82.31844 377 ft 99 kts 171°
2026-04-21 22:46 28.78549 -82.31772 574 ft 117 kts 165°
2026-04-21 22:47 28.77721 -82.31507 812 ft 130 kts 152°
2026-04-21 22:47 28.76838 -82.31113 1060 ft 143 kts 150°
2026-04-21 22:47 28.75893 -82.30642 1287 ft 155 kts 148°
2026-04-21 22:47 28.74898 -82.30103 1522 ft 163 kts 147°
2026-04-21 22:48 28.73890 -82.29524 1729 ft 161 kts 147°
2026-04-21 22:48 28.72895 -82.28962 1871 ft 159 kts 145°
2026-04-21 22:48 28.71887 -82.28393 2116 ft 163 kts 147°
2026-04-21 22:48 28.70877 -82.27827 2456 ft 161 kts 146°
2026-04-21 22:49 28.69868 -82.27259 2684 ft 162 kts 145°
2026-04-21 22:49 28.68851 -82.26687 3034 ft 164 kts 147°
2026-04-21 22:49 28.67827 -82.26131 3172 ft 163 kts 146°
2026-04-21 22:49 28.66798 -82.25561 3391 ft 165 kts 147°
2026-04-21 22:50 28.65774 -82.24972 3536 ft 165 kts 146°
2026-04-21 22:50 28.64748 -82.24375 3695 ft 167 kts 147°
2026-04-21 22:50 28.63710 -82.23759 3849 ft 169 kts 146°
2026-04-21 22:50 28.62661 -82.23138 4299 ft 170 kts 147°
2026-04-21 22:51 28.61620 -82.22518 4498 ft 171 kts 148°
2026-04-21 22:51 28.60528 -82.21847 4498 ft 184 kts 146°
2026-04-21 22:51 28.59397 -82.21149 4507 ft 186 kts 146°
2026-04-21 22:51 28.58253 -82.20451 4508 ft 184 kts 146°
2026-04-21 22:52 28.57153 -82.19781 4495 ft 175 kts 146°
2026-04-21 22:52 28.56081 -82.19139 4492 ft 174 kts 145°
2026-04-21 22:52 28.55019 -82.18500 4516 ft 173 kts 146°
2026-04-21 22:52 28.53954 -82.17844 4497 ft 173 kts 147°
2026-04-21 22:53 28.52896 -82.17211 4495 ft 170 kts 146°
2026-04-21 22:53 28.51851 -82.16581 4503 ft 169 kts 147°
2026-04-21 22:53 28.50797 -82.15956 4536 ft 174 kts 144°
2026-04-21 22:53 28.49711 -82.15310 4496 ft 176 kts 147°
2026-04-21 22:54 28.48649 -82.14676 4507 ft 170 kts 148°
2026-04-21 22:54 28.47609 -82.14049 4502 ft 169 kts 146°
2026-04-21 22:54 28.46574 -82.13422 4503 ft 168 kts 146°
2026-04-21 22:54 28.45548 -82.12815 4498 ft 167 kts 148°
2026-04-21 22:55 28.44523 -82.12193 4498 ft 167 kts 147°
2026-04-21 22:55 28.43501 -82.11572 4512 ft 167 kts 146°
2026-04-21 22:55 28.42469 -82.10963 4500 ft 167 kts 146°
2026-04-21 22:55 28.41440 -82.10348 4534 ft 169 kts 147°
2026-04-21 22:56 28.40383 -82.09707 4512 ft 173 kts 147°
2026-04-21 22:56 28.39326 -82.09078 4528 ft 171 kts 147°
2026-04-21 22:56 28.38517 -82.08185 4506 ft 158 kts 108°
2026-04-21 22:56 28.38219 -82.07017 4514 ft 152 kts 98°
2026-04-21 22:57 28.37950 -82.05875 4509 ft 151 kts 99°
2026-04-21 22:57 28.37658 -82.04709 4511 ft 152 kts 98°
2026-04-21 22:57 28.37365 -82.03567 4510 ft 153 kts 99°
2026-04-21 22:57 28.37071 -82.02405 4510 ft 153 kts 99°
2026-04-21 22:58 28.36772 -82.01243 4513 ft 154 kts 99°
2026-04-21 22:58 28.36572 -82.00071 4505 ft 148 kts 80°
2026-04-21 22:58 28.37075 -81.99135 4504 ft 142 kts 32°
2026-04-21 22:58 28.37992 -81.98735 4509 ft 141 kts 20°
2026-04-21 22:59 28.38918 -81.98368 4513 ft 141 kts 20°
2026-04-21 22:59 28.39843 -81.98001 4515 ft 141 kts 21°
2026-04-21 22:59 28.40770 -81.97632 4513 ft 141 kts 20°
2026-04-21 22:59 28.41702 -81.97270 4518 ft 142 kts 21°
2026-04-21 23:00 28.42645 -81.96915 4513 ft 142 kts 20°
2026-04-21 23:00 28.43582 -81.96551 4510 ft 142 kts 20°
2026-04-21 23:00 28.44517 -81.96193 4510 ft 142 kts 20°
2026-04-21 23:00 28.45457 -81.95834 4512 ft 142 kts 20°
2026-04-21 23:01 28.46398 -81.95471 4515 ft 143 kts 21°
2026-04-21 23:01 28.47023 -81.95224 4511 ft 144 kts 20°
2026-04-21 23:01 28.47971 -81.94860 4512 ft 144 kts 20°
2026-04-21 23:01 28.48916 -81.94490 4510 ft 143 kts 20°
2026-04-21 23:02 28.49856 -81.94124 4511 ft 143 kts 19°
2026-04-21 23:02 28.50791 -81.93758 4509 ft 142 kts 20°
2026-04-21 23:02 28.51725 -81.93396 4508 ft 141 kts 20°
2026-04-21 23:02 28.52659 -81.93025 4517 ft 147 kts 20°
2026-04-21 23:03 28.53641 -81.92635 4295 ft 151 kts 21°
2026-04-21 23:03 28.54631 -81.92249 4048 ft 149 kts 21°
2026-04-21 23:03 28.55596 -81.91883 3795 ft 145 kts 22°
2026-04-21 23:03 28.56572 -81.91547 3553 ft 148 kts 20°
2026-04-21 23:04 28.57541 -81.91241 3283 ft 141 kts 19°
2026-04-21 23:04 28.58431 -81.90846 3011 ft 135 kts 41°
2026-04-21 23:04 28.58786 -81.89877 2759 ft 143 kts 89°
2026-04-21 23:04 28.58257 -81.88848 2531 ft 161 kts 124°
2026-04-21 23:05 28.57490 -81.87923 2277 ft 160 kts 124°
2026-04-21 23:05 28.56725 -81.87029 2029 ft 159 kts 133°
2026-04-21 23:05 28.55635 -81.86644 1772 ft 171 kts 171°
2026-04-21 23:05 28.54453 -81.86655 1528 ft 167 kts 175°
2026-04-21 23:06 28.53340 -81.86685 1485 ft 154 kts 189°
2026-04-21 23:06 28.52523 -81.87376 1475 ft 144 kts 240°
2026-04-21 23:06 28.52308 -81.88410 1484 ft 128 kts 287°
2026-04-21 23:06 28.52684 -81.89152 1391 ft 92 kts 325°
2026-04-21 23:07 28.53099 -81.89547 1408 ft 69 kts 358°
2026-04-21 23:07 28.53558 -81.89607 1327 ft 63 kts 41°
2026-04-21 23:07 28.53775 -81.89167 1162 ft 68 kts 77°
2026-04-21 23:07 28.53761 -81.88564 900 ft 84 kts 85°
2026-04-21 23:08 28.53776 -81.87885 499 ft 88 kts 80°
2026-04-21 23:08 28.53386 -81.87519 218 ft 88 kts 166°
2026-04-21 23:08 28.52847 -81.87509 129 ft 65 kts 174°
2026-04-21 23:08 28.52390 -81.87459 177 ft 80 kts 171°
2026-04-21 23:09 28.51802 -81.87456 421 ft 95 kts 165°
2026-04-21 23:09 28.51047 -81.87493 769 ft 122 kts 180°
2026-04-21 23:09 28.50152 -81.87688 1022 ft 141 kts 191°
2026-04-21 23:09 28.49201 -81.88142 1234 ft 148 kts 198°
2026-04-21 23:10 28.48236 -81.88597 1505 ft 152 kts 197°
2026-04-21 23:10 28.47232 -81.89000 1845 ft 147 kts 189°
2026-04-21 23:10 28.46297 -81.89062 2250 ft 137 kts 171°
2026-04-21 23:10 28.45327 -81.88997 2530 ft 147 kts 165°
2026-04-21 23:11 28.44258 -81.88783 2781 ft 158 kts 160°
2026-04-21 23:11 28.43216 -81.88439 3266 ft 152 kts 152°
2026-04-21 23:11 28.42282 -81.87880 3452 ft 158 kts 140°
2026-04-21 23:11 28.41390 -81.87245 3466 ft 151 kts 138°
2026-04-21 23:12 28.40577 -81.86586 3593 ft 128 kts 133°
2026-04-21 23:12 28.39906 -81.85998 3632 ft 123 kts 129°
2026-04-21 23:12 28.39274 -81.85330 3661 ft 125 kts 126°
2026-04-21 23:12 28.38655 -81.84564 3578 ft 133 kts 123°
2026-04-21 23:13 28.38059 -81.83757 3500 ft 134 kts 122°
2026-04-21 23:13 28.37482 -81.82933 3407 ft 133 kts 120°
2026-04-21 23:13 28.36920 -81.82083 3398 ft 133 kts 119°
2026-04-21 23:13 28.36395 -81.81274 3469 ft 122 kts 116°
2026-04-21 23:14 28.35908 -81.80479 3503 ft 120 kts 116°
2026-04-21 23:14 28.35434 -81.79693 3510 ft 121 kts 116°
2026-04-21 23:14 28.34962 -81.78899 3494 ft 124 kts 115°
2026-04-21 23:14 28.34503 -81.78091 3545 ft 122 kts 116°
2026-04-21 23:15 28.34036 -81.77279 3523 ft 123 kts 115°
2026-04-21 23:15 28.33565 -81.76440 3533 ft 129 kts 115°
2026-04-21 23:15 28.33067 -81.75597 3517 ft 129 kts 125°
2026-04-21 23:15 28.32395 -81.74919 3510 ft 126 kts 126°
2026-04-21 23:16 28.31791 -81.74242 3527 ft 124 kts 129°
2026-04-21 23:16 28.31159 -81.73499 3514 ft 133 kts 126°
2026-04-21 23:16 28.30501 -81.72744 3530 ft 143 kts 128°
2026-04-21 23:16 28.29527 -81.72317 3530 ft 165 kts 174°
2026-04-21 23:17 28.28453 -81.72822 3485 ft 176 kts 216°
2026-04-21 23:17 28.27492 -81.73681 3304 ft 176 kts 212°
2026-04-21 23:17 28.26452 -81.74406 3116 ft 176 kts 208°
2026-04-21 23:17 28.25390 -81.75110 2923 ft 178 kts 207°
2026-04-21 23:18 28.24313 -81.75816 2755 ft 181 kts 207°
2026-04-21 23:18 28.23203 -81.76537 2602 ft 182 kts 208°
2026-04-21 23:18 28.22149 -81.77249 2390 ft 170 kts 207°
2026-04-21 23:18 28.21130 -81.77900 2156 ft 167 kts 205°
2026-04-21 23:19 28.20161 -81.78558 1945 ft 158 kts 206°
2026-04-21 23:19 28.19198 -81.79180 1733 ft 163 kts 205°
2026-04-21 23:19 28.18232 -81.79812 1544 ft 159 kts 205°
2026-04-21 23:19 28.17297 -81.80422 1311 ft 154 kts 206°
2026-04-21 23:20 28.16453 -81.81097 1218 ft 144 kts 228°
2026-04-21 23:20 28.15894 -81.81913 1190 ft 117 kts 233°
2026-04-21 23:20 28.15401 -81.82582 1135 ft 111 kts 227°
2026-04-21 23:20 28.14922 -81.83231 1182 ft 102 kts 228°
2026-04-21 23:21 28.14442 -81.83879 1227 ft 114 kts 232°
2026-04-21 23:21 28.13919 -81.84613 1229 ft 124 kts 232°
2026-04-21 23:21 28.13378 -81.85361 1246 ft 123 kts 229°
2026-04-21 23:21 28.12811 -81.86127 1235 ft 130 kts 229°
2026-04-21 23:22 28.12245 -81.86907 1228 ft 126 kts 233°
2026-04-21 23:22 28.11707 -81.87660 1221 ft 121 kts 229°
2026-04-21 23:22 28.11171 -81.88396 1225 ft 122 kts 230°
2026-04-21 23:22 28.10639 -81.89127 1215 ft 116 kts 229°
2026-04-21 23:23 28.10123 -81.89841 1232 ft 121 kts 227°
2026-04-21 23:23 28.09593 -81.90562 1237 ft 120 kts 225°
2026-04-21 23:23 28.09062 -81.91295 1213 ft 117 kts 231°
2026-04-21 23:23 28.08549 -81.92006 1211 ft 119 kts 232°
2026-04-21 23:24 28.07987 -81.92724 1218 ft 124 kts 218°
2026-04-21 23:24 28.07444 -81.93481 1202 ft 122 kts 245°
2026-04-21 23:24 28.07164 -81.94351 1181 ft 116 kts 251°
2026-04-21 23:24 28.06915 -81.95220 1188 ft 115 kts 259°
2026-04-21 23:25 28.06756 -81.96120 1254 ft 118 kts 261°
2026-04-21 23:25 28.06551 -81.97029 1276 ft 123 kts 258°
2026-04-21 23:25 28.06331 -81.97987 1218 ft 128 kts 256°
2026-04-21 23:25 28.06030 -81.98926 1201 ft 128 kts 250°
2026-04-21 23:26 28.05684 -81.99841 1214 ft 123 kts 249°
2026-04-21 23:26 28.05281 -82.00724 1066 ft 127 kts 237°
2026-04-21 23:26 28.04809 -82.01571 957 ft 124 kts 224°
2026-04-21 23:26 28.04084 -82.01898 936 ft 109 kts 174°
2026-04-21 23:27 28.03347 -82.01912 979 ft 105 kts 172°
2026-04-21 23:27 28.02626 -82.01936 987 ft 104 kts 173°
2026-04-21 23:27 28.01925 -82.01927 1052 ft 100 kts 168°
2026-04-21 23:27 28.01188 -82.01874 884 ft 114 kts 180°
2026-04-21 23:28 28.00637 -82.02498 769 ft 125 kts 265°
2026-04-21 23:28 28.00573 -82.03461 625 ft 116 kts 243°
2026-04-21 23:28 28.00050 -82.03790 473 ft 76 kts 164°
2026-04-21 23:28 27.99551 -82.03775 395 ft 71 kts 166°
2026-04-21 23:29 27.99164 -82.03567 355 ft 59 kts 108°
2026-04-21 23:29 27.99062 -82.03105 312 ft 62 kts 96°
2026-04-21 23:29 27.99039 -82.02595 261 ft 65 kts 90°
2026-04-21 23:29 27.99038 -82.02081 201 ft 65 kts 90°
2026-04-21 23:30 27.99040 -82.01576 146 ft 64 kts 90°
2026-04-21 23:30 27.99038 -82.01162 144 ft 43 kts 89°
2026-04-21 23:30 27.99041 -82.00876 147 ft 29 kts 90°
2026-04-21 23:30 27.98980 -82.00763 147 ft 19 kts 180°
2026-04-21 23:31 27.98841 -82.00758 144 ft 19 kts 178°
2026-04-21 23:31 27.98695 -82.00748 143 ft 22 kts 179°
2026-04-21 23:31 27.98650 -82.00839 142 ft 22 kts 264°
2026-04-21 23:31 27.98600 -82.01041 141 ft 30 kts 248°
2026-04-21 23:32 27.98537 -82.01234 143 ft 17 kts 248°
2026-04-21 23:32 27.98475 -82.01315 144 ft 11 kts 207°
2026-04-21 23:32 27.98481 -82.01347 143 ft 4 kts 32°
2026-04-21 23:32 27.98487 -82.01343 143 ft 0 kts 32°
2026-04-21 23:33 27.98486 -82.01343 143 ft 0 kts 32°
2026-04-21 23:33 27.98486 -82.01344 143 ft 0 kts 32°
2026-04-21 23:36 27.98485 -82.01344 143 ft 0 kts 32°
2026-04-21 23:38 27.98485 -82.01345 143 ft 0 kts 31°
2026-04-21 23:40 27.98484 -82.01345 143 ft 0 kts 31°
2026-04-21 23:44 27.98483 -82.01346 143 ft 0 kts 31°
2026-04-21 23:47 27.98482 -82.01346 143 ft 0 kts 31°
2026-04-21 23:49 27.98482 -82.01347 143 ft 0 kts 31°
2026-04-21 23:51 27.98481 -82.01347 143 ft 0 kts 31°
2026-04-21 23:56 27.98481 -82.01348 143 ft 0 kts 30°
2026-04-21 23:56 27.98480 -82.01348 143 ft 0 kts 30°
2026-04-22 00:00 27.98479 -82.01348 143 ft 0 kts 30°
2026-04-22 00:02 27.98479 -82.01349 143 ft 0 kts 30°
2026-04-22 00:04 27.98478 -82.01349 134 ft 0 kts 30°
2026-04-22 00:09 27.98477 -82.01350 143 ft 0 kts 30°
2026-04-22 00:14 27.98476 -82.01350 143 ft 0 kts 30°